Location: ?????
(31.8092°N, 35.2590°E)
Time: 15:05:09
(UTC+00:00)

Cosmos 2237 Rocket - Pass Details

Date: 20 June 2021
Orbit: 835 x 850 km, 71.0° (Epoch: 31 July)

Event Time Altitude Azimuth Distance (km) Brightness Sun altitude
Exits shadow 18:59:38 19° 73° (ENE) 1,904 3.8 -22.7°
Drops below altitude 10° 19:01:56 10° 52° (NE) 2,446 4.6 -23.0°
Sets 19:04:52 0° 38° (NE) 3,384 5.5 -23.4°
